Погода в Ермолино

Россия / Калужская область     55°11′49″N   36°35′42″E
темп.,
°C
ветер,
м/с
пор.,
м/с
влажн.,
%
обл.,
%
осадки,
мм/ч
давл.,
гПа
погр.,
м
5 марта, пт
пт500:00−5сз2494100 0.0 1003113
03:00−7сз239567 0.0 100562
06:00−9зсз23960 0.0 100783
09:00−7зсз37910 0.0 1008304
12:00−3зсз467665 0.0 10091048
15:00−2зсз357082 0.1 10111244
18:00−6з238533 0.1 101250
21:00−8зсз238917 0.1 101425
6 марта, сб
сб600:00−9сз229154 0.0 101521
03:00−10сз229159 0.0 101623
06:00−12сз239425 0.0 101660
09:00−9сз258912 0.0 1017207
12:00−5зсз357625 0.0 1018912
15:00−4зсз467463 0.2 10161074
18:00−7з268595 0.3 1016132
21:00−9зюз359059 0.3 101698
7 марта, вс
вс700:00−10юз39912 0.0 1013203
03:00−8юз5138540 0.0 1010483
06:00−7юз71579100 0.0 1005784
09:00−6юз91690100 0.1 10001089
12:00−2юз91789100 1.1 9951347
15:00−4зсз8155991 2.3 9971955
18:00−6з5137334 0.0 9991031
21:00−6зюз6147441 0.0 999848
8 марта, пн
пн800:00−6зюз6148263 0.0 9961021
03:00−6зюз7138682 0.1 9961040
06:00−8сз71187100 1.3 996933
09:00−10зсз71284100 1.3 999994
12:00−7зсз6117397 0.2 10021101
15:00−6зсз7117899 0.3 10031342
18:00−7сз51089100 0.2 1005835
21:00−10зсз3109191 0.2 1009335
9 марта, вт
вт900:00−11сз389456 0.0 1011343
03:00−13сз389475 0.1 1013327
06:00−16ссз389494 0.0 1014336
09:00−15ссз489096 0.1 1016435
12:00−12сз3683100 0.0 1017523
15:00−10сз357476 0.0 1017679
18:00−12зсз228751 0.0 101756
21:00−12юз229175 0.0 101750